sat.trackr.live / text

‹ back to catalog

HAWK-2C

NORAD 47502 · 2021-006CT

PAYLOAD ACTIVE UNKNOWN

§ Identity

Operator
Country
US
Launch date
2021-01-24
Launch site
AFETR
Launch vehicle
Mass (kg)
RCS (m²)

Purposes: tech_demo

External: N2YO · Heavens-Above · Gunter

§ Orbital elements

Epoch: 2026-09-19T23:46:25.223808Z

Period
93.77 min
Inclination
97.2199°
Eccentricity
0.0005782
Mean motion
15.35674539 rev/d
Perigee alt
455.0 km
Apogee alt
462.9 km
Semi-major
6,837.1 km
B*
1.1996e-4
RAAN
305.4305°
Arg perigee
206.7130°
Mean anomaly
153.3817°
Rev number
31,404

§ Raw data

HAWK-2C1 47502U 21006CT  26262.99056972  .00004084  00000+0  11996-3 0  99962 47502  97.2199 305.4305 0005782 206.7130 153.3817 15.35674539314046

JSON: /api/v1/satellites/47502 · /tle

For live sub-satellite position, see the globe view (requires WebGL).

§ Visibility from observer

Set your observer location to see the next 7 days of passes ≥ 10°. The values pass through the URL so the page stays shareable.

No JS? Fill the form by hand. The geolocation button needs JavaScript.